Location: Krakow
(50.0830°N, 19.9170°E)
Time: 06:38:24
(UTC+01:00)

SR - Pass Details

Date: 13 February 2023
Orbit: 582 x 867 km, 66.7° (Epoch: 20 March)

Event Time Altitude Azimuth Distance (km) Brightness Sun altitude
Rises 19:13:56 0° 326° (NW) 2,870 ? -22.8°
Reaches altitude 10° 19:16:20 10° 334° (NNW) 1,939 ? -23.2°
Enters shadow 19:19:18 33° 8° (N) 992 ? -23.7°
Maximum altitude 19:20:25 40° 44° (NE) 871 - -23.9°
Drops below altitude 10° 19:24:25 10° 115° (ESE) 1,903 - -24.5°
Sets 19:26:45 0° 123° (ESE) 2,809 - -24.9°
